This is the latest recevied weather packets stored in our database for station/object DL4YM-13. If no packets are shown the sender has not sent any weather packets the latest 10 day(s).
| Time | Temp. | Humidity | Pressure | Rain* | Wind** | Luminosity | Snow |
|---|---|---|---|---|---|---|---|
| 1788153221 | 59° F | 10% | 745.1 mmHg | - | - | - | - |
| 1788152622 | 59° F | 10% | 745 mmHg | - | - | - | - |
| 1788152021 | 59° F | 10% | 745 mmHg | - | - | - | - |
| 1788151421 | 60° F | 10% | 745 mmHg | - | - | - | - |
| 1788150821 | 60° F | 10% | 745 mmHg | - | - | - | - |
| 1788150222 | 60° F | 10% | 745 mmHg | - | - | - | - |
| 1788149622 | 60° F | 10% | 745 mmHg | - | - | - | - |
| 1788149021 | 60° F | 97% | 744.9 mmHg | - | - | - | - |
| 1788148421 | 61° F | 93% | 744.9 mmHg | - | - | - | - |
| 1788147822 | 61° F | 91% | 745 mmHg | - | - | - | - |
| 1788147221 | 61° F | 90% | 744.7 mmHg | - | - | - | - |
| 1788146621 | 61° F | 90% | 744.7 mmHg | - | - | - | - |
| 1788146021 | 60° F | 91% | 744.8 mmHg | - | - | - | - |
| 1788145421 | 60° F | 89% | 744.8 mmHg | - | - | - | - |
| 1788144822 | 60° F | 91% | 744.7 mmHg | - | - | - | - |
| 1788144221 | 59° F | 95% | 744.7 mmHg | - | - | - | - |
| 1788143622 | 59° F | 96% | 744.6 mmHg | - | - | - | - |
| 1788143022 | 60° F | 97% | 744.6 mmHg | - | - | - | - |
| 1788142421 | 61° F | 89% | 744.9 mmHg | - | - | - | - |
| 1788141821 | 61° F | 89% | 744.9 mmHg | - | - | - | - |
| 1788141221 | 61° F | 89% | 744.9 mmHg | - | - | - | - |
| 1788140622 | 60° F | 93% | 745.2 mmHg | - | - | - | - |
| 1788140021 | 60° F | 93% | 745.2 mmHg | - | - | - | - |
| 1788139421 | 60° F | 95% | 745.3 mmHg | - | - | - | - |
| 1788138821 | 60° F | 94% | 745.3 mmHg | - | - | - | - |
* Rain since midnight (hover to see other rain measurements)
** Current wind speed in m/s (hover to see current wind gust speed)